UAE23W EGLL-OMDB

Flight info

Callsign UAE23W
Flight time N/A
Altitude 35000
Route DET L6 DVR UL9 KONAN UL607 KOK DCT REMBA DCT LIRSU DCT KRH DCT UTABA DCT MOMUK DCT GEDSO DCT VEKEN DCT MSR DCT PINDO DCT PAXIS Y707 GEROP/N0483F370 Y707 OBRAN L321 REXUM M872 BDB Y214 RAPMA DCT KUVSO DCT KATIT DCT PEKEM M628 RIGIL G783 ELUDA/N0502F350 G783 ASPED Q308 KIPOK Q568 IMPED
Aircraft B77W/H-SDE1E2E3FGHIJ2J3J4J5M1RWXY/LB1D1

Departure

Time 2026-05-06 13:39
Airport London Heathrow Airport (EGLL)

Arrival

Time N/A
Airport Dubai International Airport (OMDB)
Time Latitude Longitude Altitude Speed Heading
2026-05-06 13:03 51.46845 -0.46142 91 ft 0 kts 235°
2026-05-06 13:24 51.46847 -0.46137 91 ft 3 kts 235°
2026-05-06 13:24 51.46862 -0.46103 93 ft 4 kts 235°
2026-05-06 13:25 51.46873 -0.46073 94 ft 4 kts 261°
2026-05-06 13:25 51.46868 -0.46037 93 ft 4 kts 310°
2026-05-06 13:25 51.46848 -0.46008 94 ft 4 kts 325°
2026-05-06 13:25 51.46828 -0.45988 91 ft 4 kts 345°
2026-05-06 13:26 51.46802 -0.45984 92 ft 3 kts 359°
2026-05-06 13:26 51.46779 -0.45982 92 ft 4 kts 345°
2026-05-06 13:26 51.46757 -0.45963 93 ft 4 kts 308°
2026-05-06 13:26 51.46748 -0.45929 92 ft 3 kts 270°
2026-05-06 13:27 51.46748 -0.45886 92 ft 4 kts 270°
2026-05-06 13:27 51.46748 -0.45876 93 ft 0 kts 270°
2026-05-06 13:30 51.46748 -0.45900 92 ft 5 kts 270°
2026-05-06 13:30 51.46748 -0.45982 93 ft 10 kts 270°
2026-05-06 13:31 51.46748 -0.46088 94 ft 12 kts 270°
2026-05-06 13:31 51.46746 -0.46243 94 ft 16 kts 269°
2026-05-06 13:31 51.46747 -0.46444 95 ft 19 kts 270°
2026-05-06 13:31 51.46747 -0.46536 94 ft 0 kts 270°
2026-05-06 13:33 51.46747 -0.46540 94 ft 3 kts 270°
2026-05-06 13:33 51.46748 -0.46663 94 ft 20 kts 270°
2026-05-06 13:33 51.46747 -0.46900 94 ft 21 kts 269°
2026-05-06 13:34 51.46746 -0.47136 94 ft 21 kts 269°
2026-05-06 13:34 51.46744 -0.47374 93 ft 21 kts 269°
2026-05-06 13:34 51.46743 -0.47611 91 ft 21 kts 270°
2026-05-06 13:34 51.46743 -0.47848 91 ft 21 kts 270°
2026-05-06 13:35 51.46743 -0.48085 91 ft 21 kts 270°
2026-05-06 13:35 51.46743 -0.48323 91 ft 21 kts 270°
2026-05-06 13:35 51.46742 -0.48561 91 ft 20 kts 269°
2026-05-06 13:35 51.46741 -0.48693 91 ft 9 kts 265°
2026-05-06 13:36 51.46695 -0.48744 96 ft 9 kts 188°
2026-05-06 13:36 51.46633 -0.48755 93 ft 8 kts 190°
2026-05-06 13:36 51.46615 -0.48762 94 ft 3 kts 195°
2026-05-06 13:36 51.46594 -0.48771 94 ft 4 kts 195°
2026-05-06 13:37 51.46556 -0.48783 94 ft 13 kts 184°
2026-05-06 13:37 51.46480 -0.48683 95 ft 15 kts 102°
2026-05-06 13:37 51.46478 -0.48611 94 ft 0 kts 88°
2026-05-06 13:38 51.46480 -0.48541 91 ft 26 kts 88°
2026-05-06 13:38 51.46483 -0.47857 94 ft 96 kts 90°
2026-05-06 13:38 51.46488 -0.46465 95 ft 151 kts 89°
2026-05-06 13:38 51.46535 -0.44609 298 ft 174 kts 85°
2026-05-06 13:39 51.46552 -0.42622 780 ft 182 kts 88°
2026-05-06 13:39 51.46292 -0.40533 1128 ft 204 kts 114°
2026-05-06 13:39 51.45424 -0.38688 1577 ft 210 kts 130°
2026-05-06 13:39 51.44452 -0.36834 1858 ft 225 kts 115°
2026-05-06 13:40 51.43960 -0.34410 2162 ft 236 kts 98°
2026-05-06 13:40 51.43597 -0.31812 2768 ft 240 kts 99°
2026-05-06 13:40 51.43172 -0.29171 3231 ft 256 kts 106°
2026-05-06 13:40 51.42582 -0.26537 4125 ft 245 kts 105°
2026-05-06 13:41 51.42137 -0.23869 4661 ft 257 kts 99°
2026-05-06 13:41 51.41765 -0.20926 4848 ft 281 kts 98°
2026-05-06 13:41 51.41358 -0.17846 5599 ft 282 kts 99°
2026-05-06 13:41 51.40930 -0.14766 5989 ft 281 kts 100°
2026-05-06 13:42 51.40503 -0.11716 5986 ft 280 kts 99°
2026-05-06 13:42 51.40079 -0.08685 5998 ft 277 kts 99°
2026-05-06 13:42 51.39682 -0.05821 5987 ft 276 kts 100°
2026-05-06 13:42 51.39261 -0.02780 5994 ft 274 kts 99°
2026-05-06 13:43 51.38849 0.00190 6016 ft 273 kts 100°
2026-05-06 13:43 51.38441 0.03122 6014 ft 273 kts 101°
2026-05-06 13:43 51.38022 0.06114 6007 ft 272 kts 101°
2026-05-06 13:43 51.37609 0.09063 5999 ft 271 kts 100°
2026-05-06 13:44 51.37204 0.11964 5998 ft 270 kts 100°
2026-05-06 13:44 51.36787 0.14925 6004 ft 269 kts 101°
2026-05-06 13:44 51.36383 0.17798 6003 ft 269 kts 99°
2026-05-06 13:44 51.35973 0.20720 5992 ft 268 kts 101°
2026-05-06 13:45 51.35562 0.23627 6001 ft 268 kts 101°
2026-05-06 13:45 51.34740 0.29439 5958 ft 269 kts 99°
2026-05-06 13:45 51.34360 0.32387 5936 ft 271 kts 98°
2026-05-06 13:46 51.33997 0.35347 5914 ft 272 kts 99°
2026-05-06 13:46 51.33544 0.38277 5879 ft 273 kts 106°
2026-05-06 13:46 51.32862 0.41127 5846 ft 276 kts 113°
2026-05-06 13:46 51.31983 0.43857 5849 ft 274 kts 112°
2026-05-06 13:47 51.31451 0.46716 5807 ft 267 kts 97°
2026-05-06 13:47 51.31284 0.49645 5860 ft 265 kts 89°
2026-05-06 13:47 51.31113 0.52630 6446 ft 269 kts 96°
2026-05-06 13:47 51.30813 0.55584 7157 ft 272 kts 96°
2026-05-06 13:48 51.30530 0.58610 7758 ft 279 kts 95°
2026-05-06 13:48 51.30263 0.61713 8385 ft 285 kts 95°
2026-05-06 13:48 51.30010 0.64884 9056 ft 290 kts 94°
2026-05-06 13:48 51.29772 0.68100 9733 ft 293 kts 96°
2026-05-06 13:49 51.29419 0.71343 10327 ft 298 kts 100°
2026-05-06 13:49 51.28997 0.74614 10847 ft 305 kts 99°
2026-05-06 13:49 51.28593 0.78043 11055 ft 326 kts 98°
2026-05-06 13:49 51.28205 0.81762 11062 ft 354 kts 96°
2026-05-06 13:50 51.27819 0.85807 11213 ft 378 kts 97°
2026-05-06 13:50 51.27403 0.90023 11756 ft 388 kts 98°
2026-05-06 13:50 51.26984 0.94324 12495 ft 396 kts 97°
2026-05-06 13:50 51.26566 0.98696 13397 ft 399 kts 98°
2026-05-06 13:51 51.26148 1.03084 14371 ft 400 kts 98°
2026-05-06 13:51 51.25735 1.07498 15195 ft 404 kts 98°
2026-05-06 13:51 51.25320 1.11956 15992 ft 409 kts 98°
2026-05-06 13:51 51.24890 1.16537 15911 ft 421 kts 98°
2026-05-06 13:52 51.24456 1.21081 15863 ft 409 kts 98°
2026-05-06 13:52 51.24021 1.25579 15829 ft 410 kts 98°
2026-05-06 13:52 51.23582 1.30077 15833 ft 410 kts 98°
2026-05-06 13:52 51.23143 1.34553 15811 ft 403 kts 98°
2026-05-06 13:53 51.22722 1.38813 15783 ft 373 kts 99°
2026-05-06 13:53 51.22328 1.42781 15799 ft 355 kts 99°
2026-05-06 13:53 51.21948 1.46596 15790 ft 341 kts 99°
2026-05-06 13:53 51.21583 1.50256 15799 ft 330 kts 99°
2026-05-06 13:54 51.21022 1.53859 15765 ft 344 kts 117°
2026-05-06 13:54 51.19511 1.56910 15773 ft 364 kts 144°
2026-05-06 13:54 51.17195 1.58706 15743 ft 381 kts 168°
2026-05-06 13:54 51.14550 1.59041 15396 ft 385 kts 187°
2026-05-06 13:55 51.11940 1.58037 14687 ft 388 kts 205°
2026-05-06 13:55 51.09669 1.55772 14047 ft 386 kts 226°
2026-05-06 13:55 51.08061 1.52449 13658 ft 376 kts 241°
2026-05-06 13:55 51.06979 1.48722 13207 ft 370 kts 252°
2026-05-06 13:56 51.06512 1.44771 12677 ft 359 kts 269°
2026-05-06 13:56 51.06465 1.40812 12382 ft 351 kts 270°
2026-05-06 13:56 51.06441 1.36935 12356 ft 357 kts 270°
2026-05-06 13:56 51.06411 1.32910 12372 ft 369 kts 270°
2026-05-06 13:57 51.06366 1.28824 12366 ft 369 kts 270°
2026-05-06 13:57 51.06308 1.24754 12361 ft 367 kts 270°
2026-05-06 13:57 51.06228 1.20725 12343 ft 364 kts 268°
2026-05-06 13:57 51.06057 1.16710 12123 ft 362 kts 267°
2026-05-06 13:58 51.05844 1.12732 11762 ft 362 kts 266°
2026-05-06 13:58 51.05620 1.08743 11426 ft 362 kts 267°
2026-05-06 13:58 51.05401 1.04764 11054 ft 362 kts 267°
2026-05-06 13:58 51.05187 1.00787 10740 ft 361 kts 267°
2026-05-06 13:59 51.04977 0.96811 10436 ft 360 kts 267°
2026-05-06 13:59 51.04771 0.92861 10160 ft 358 kts 267°
2026-05-06 13:59 51.04566 0.88929 9876 ft 357 kts 267°
2026-05-06 13:59 51.04363 0.85035 9765 ft 349 kts 267°
2026-05-06 14:00 51.04167 0.81329 9594 ft 324 kts 268°
2026-05-06 14:00 51.04044 0.79017 9474 ft 310 kts 267°
2026-05-06 14:00 51.03869 0.75716 9320 ft 290 kts 268°
2026-05-06 14:00 51.03706 0.72604 9045 ft 277 kts 267°
2026-05-06 14:01 51.03546 0.69598 8681 ft 269 kts 268°
2026-05-06 14:01 51.03390 0.66638 8273 ft 271 kts 267°
2026-05-06 14:01 51.03234 0.63663 8174 ft 268 kts 267°
2026-05-06 14:01 51.03078 0.60727 8067 ft 266 kts 268°
2026-05-06 14:02 51.02921 0.57806 7921 ft 265 kts 268°
2026-05-06 14:02 51.02762 0.54886 7757 ft 265 kts 268°
2026-05-06 14:02 51.02604 0.51964 7636 ft 265 kts 268°
2026-05-06 14:02 51.02444 0.49053 7497 ft 265 kts 268°
2026-05-06 14:03 51.02284 0.46140 7338 ft 264 kts 267°
2026-05-06 14:03 51.02123 0.43236 7202 ft 263 kts 268°
2026-05-06 14:03 51.01963 0.40343 7034 ft 263 kts 268°
2026-05-06 14:03 51.01801 0.37451 6874 ft 263 kts 267°
2026-05-06 14:04 51.01640 0.34568 6717 ft 262 kts 268°
2026-05-06 14:04 51.01479 0.31688 6598 ft 261 kts 267°
2026-05-06 14:04 51.01318 0.28818 6482 ft 261 kts 266°
2026-05-06 14:04 51.01153 0.25949 6350 ft 261 kts 268°
2026-05-06 14:05 51.00990 0.23088 6226 ft 260 kts 268°
2026-05-06 14:05 51.00827 0.20231 6104 ft 259 kts 267°
2026-05-06 14:05 51.00662 0.17380 5956 ft 259 kts 268°
2026-05-06 14:05 51.00498 0.14540 5824 ft 259 kts 268°
2026-05-06 14:06 51.00334 0.11699 5695 ft 258 kts 267°
2026-05-06 14:06 51.00168 0.08866 5553 ft 258 kts 268°
2026-05-06 14:06 51.00004 0.06036 5431 ft 257 kts 268°
2026-05-06 14:06 50.99838 0.03215 5317 ft 256 kts 266°
2026-05-06 14:07 50.99671 0.00394 5170 ft 257 kts 268°
2026-05-06 14:07 50.99504 -0.02422 5028 ft 256 kts 268°
2026-05-06 14:07 50.99337 -0.05221 4948 ft 254 kts 268°
2026-05-06 14:07 50.99173 -0.08005 4804 ft 254 kts 268°
2026-05-06 14:08 50.99006 -0.10798 4612 ft 254 kts 267°
2026-05-06 14:08 50.98837 -0.13616 4245 ft 256 kts 268°
2026-05-06 14:08 50.98667 -0.16383 4118 ft 247 kts 268°
2026-05-06 14:08 50.98505 -0.19029 4032 ft 234 kts 269°
2026-05-06 14:09 50.98695 -0.21521 4010 ft 228 kts 297°
2026-05-06 14:09 50.99626 -0.23518 4007 ft 226 kts 323°
2026-05-06 14:09 51.00982 -0.24650 3996 ft 219 kts 347°
2026-05-06 14:09 51.02470 -0.24719 3993 ft 215 kts 13°
2026-05-06 14:10 51.03824 -0.23725 3992 ft 219 kts 38°
2026-05-06 14:10 51.04827 -0.21891 4002 ft 224 kts 57°
2026-05-06 14:10 51.05286 -0.19516 4006 ft 229 kts 82°
2026-05-06 14:10 51.05415 -0.16987 4008 ft 231 kts 81°
2026-05-06 14:11 51.05574 -0.14429 4025 ft 234 kts 81°
2026-05-06 14:11 51.05736 -0.11867 4007 ft 231 kts 81°
2026-05-06 14:11 51.05885 -0.09352 3983 ft 225 kts 85°
2026-05-06 14:11 51.05535 -0.06920 4009 ft 233 kts 117°
2026-05-06 14:12 51.04433 -0.04985 4013 ft 242 kts 146°
2026-05-06 14:12 51.02862 -0.04027 4000 ft 244 kts 174°
2026-05-06 14:12 51.01201 -0.04375 3992 ft 242 kts 206°
2026-05-06 14:12 50.99898 -0.05972 4001 ft 236 kts 237°
2026-05-06 14:13 50.99212 -0.08246 3993 ft 230 kts 263°
2026-05-06 14:13 50.99031 -0.10732 4015 ft 227 kts 268°
2026-05-06 14:13 50.98875 -0.13258 4003 ft 232 kts 268°
2026-05-06 14:13 50.98711 -0.15820 4014 ft 236 kts 267°
2026-05-06 14:14 50.98540 -0.18418 4010 ft 236 kts 268°
2026-05-06 14:14 50.98558 -0.20952 3986 ft 225 kts 290°
2026-05-06 14:14 50.99348 -0.23042 4011 ft 223 kts 320°
2026-05-06 14:14 51.00658 -0.24303 4002 ft 221 kts 344°
2026-05-06 14:15 51.02171 -0.24504 4001 ft 219 kts 10°
2026-05-06 14:15 51.03549 -0.23555 3991 ft 218 kts 38°
2026-05-06 14:15 51.04536 -0.21723 4006 ft 222 kts 59°
2026-05-06 14:15 51.04926 -0.19341 3991 ft 230 kts 92°
2026-05-06 14:16 51.04378 -0.16916 3922 ft 244 kts 123°
2026-05-06 14:16 51.03093 -0.15165 3651 ft 248 kts 154°
2026-05-06 14:16 51.01418 -0.14638 3402 ft 248 kts 186°
2026-05-06 14:16 50.99825 -0.15530 3197 ft 241 kts 220°
2026-05-06 14:17 50.98797 -0.17543 3123 ft 236 kts 249°
2026-05-06 14:17 50.98418 -0.20025 3038 ft 229 kts 275°
2026-05-06 14:17 50.98769 -0.22409 3014 ft 220 kts 292°
2026-05-06 14:17 50.99219 -0.24755 3007 ft 221 kts 288°
2026-05-06 14:18 50.99614 -0.27033 2996 ft 209 kts 288°
2026-05-06 14:18 50.99882 -0.29261 3017 ft 208 kts 278°
2026-05-06 14:18 50.99991 -0.31614 3057 ft 217 kts 276°
2026-05-06 14:18 51.00074 -0.33982 3007 ft 212 kts 276°